EW3456 Weather Reports


Display with metric or nautical units.
time (UTC)temp
F
wind
direction
speed
MPH
gust
MPH
rain 1hr
in
rain 24hr
in
rain mn
in
humidity
%
barometer
mb
20260509023602 62 102 0.0 0.0 0.00 0.00 0.00 87 1014.3
20260509021602 62 102 0.0 1.0 0.00 0.00 0.00 86 1014.3
20260509020601 62 99 0.0 0.0 0.00 0.00 0.00 86 1014.1
20260509015602 63 99 0.0 0.0 0.00 0.00 0.00 86 1014.3
20260509014602 63 99 0.0 0.0 0.00 0.00 0.00 85 1014.3
20260509013601 63 99 0.0 0.0 0.00 0.00 0.00 85 1014.0
20260509012601 64 99 0.0 0.0 0.00 0.00 0.00 83 1014.1
20260509011602 64 99 0.0 0.0 0.00 0.00 0.00 84 1014.1
20260509010601 64 99 0.0 0.0 0.00 0.00 0.00 83 1013.8
20260509005601 64 99 0.0 0.0 0.00 0.00 0.00 81 1013.7
20260509004602 65 99 0.0 0.0 0.00 0.00 0.00 81 1013.7
20260509003601 65 99 0.0 0.0 0.00 0.00 0.00 80 1013.7
20260509002602 65 99 0.0 0.0 0.00 0.00 0.00 79 1013.8
20260509001602 65 99 0.0 0.0 0.00 0.00 0.00 78 1013.9
20260508235602 66 99 0.0 0.0 0.00 0.00 0.00 76 1013.6
20260508234601 66 99 0.0 0.0 0.00 0.00 0.00 76 1013.5
20260508233602 66 99 0.0 0.0 0.00 0.00 0.00 76 1013.4
20260508230602 66 99 0.0 0.0 0.00 0.00 0.00 74 1013.6
20260508225601 66 99 0.0 0.0 0.00 0.00 0.00 72 1013.4
20260508224602 66 99 0.0 0.0 0.00 0.00 0.00 73 1013.5
20260508223602 66 99 0.0 0.0 0.00 0.00 0.00 71 1013.5
20260508222602 66 99 0.0 0.0 0.00 0.00 0.00 72 1013.6
20260508221601 66 99 0.0 0.0 0.00 0.00 0.00 71 1013.5
20260508220602 67 99 0.0 0.0 0.00 0.00 0.00 68 1013.5
20260508215601 67 94 0.0 0.0 0.00 0.00 0.00 66 1013.4
20260508214602 67 87 0.0 0.0 0.00 0.00 0.00 67 1013.5
20260508213602 68 87 0.0 0.0 0.00 0.00 0.00 66 1013.5
20260508212601 68 89 0.0 0.0 0.00 0.00 0.00 62 1013.5
20260508211602 68 101 0.0 2.0 0.00 0.00 0.00 59 1013.7
20260508210602 69 97 1.0 3.0 0.00 0.00 0.00 57 1013.6
20260508205602 68 85 0.0 0.0 0.00 0.00 0.00 65 1013.5
20260508204601 69 89 0.0 0.0 0.00 0.00 0.00 61 1013.5
20260508203601 69 94 0.0 0.0 0.00 0.00 0.00 64 1013.6
20260508202602 69 81 0.0 0.0 0.00 0.00 0.00 60 1013.9
20260508201601 69 59 0.0 1.0 0.00 0.00 0.00 57 1013.9
20260508200601 69 107 0.0 3.0 0.00 0.00 0.00 57 1014.2
20260508193601 69 78 0.0 1.0 0.00 0.00 0.00 54 1014.3
20260508192602 69 44 0.0 0.0 0.00 0.00 0.00 58 1014.5
20260508191601 69 62 0.0 1.0 0.00 0.00 0.00 55 1014.6
20260508190601 70 108 0.0 3.0 0.00 0.00 0.00 51 1014.7
20260508185601 70 113 0.0 3.0 0.00 0.00 0.00 56 1014.7
20260508184601 68 165 0.0 0.0 0.00 0.00 0.00 60 1014.9
20260508183601 68 113 0.0 1.0 0.00 0.00 0.00 53 1015.1
20260508182602 69 46 0.0 0.0 0.00 0.00 0.00 55 1015.3
20260508181602 69 203 0.0 1.0 0.00 0.00 0.00 51 1015.3
20260508180601 70 184 0.0 3.0 0.00 0.00 0.00 52 1015.4
20260508175601 69 89 0.0 2.0 0.00 0.00 0.00 54 1015.7
20260508174601 69 124 0.0 2.0 0.00 0.00 0.00 54 1015.8
20260508173602 68 322 0.0 1.0 0.00 0.00 0.00 56 1015.9
20260508170601 68 70 0.0 3.0 0.00 0.00 0.00 54 1016.5
20260508165601 68 350 0.0 1.0 0.00 0.00 0.00 55 1016.7
20260508163602 67 77 0.0 3.0 0.00 0.00 0.00 57 1017.0
20260508162602 68 233 0.0 3.0 0.00 0.00 0.00 58 1017.2
20260508161602 67 108 0.0 3.0 0.00 0.00 0.00 59 1017.2
20260508160601 67 119 0.0 3.0 0.00 0.00 0.00 51 1017.2
20260508155602 67 98 1.0 6.0 0.00 0.00 0.00 58 1017.3
20260508154601 66 91 0.0 2.0 0.00 0.00 0.00 57 1017.6
20260508153602 65 106 0.0 3.0 0.00 0.00 0.00 67 1017.8
20260508152601 66 96 1.0 6.0 0.00 0.00 0.00 61 1017.9
20260508151602 66 100 2.0 8.0 0.00 0.00 0.00 60 1017.9
20260508144602 65 103 1.0 7.0 0.00 0.00 0.00 69 1017.4
20260508143601 65 100 2.0 6.0 0.00 0.00 0.00 70 1017.4
20260508142602 64 104 1.0 6.0 0.00 0.00 0.00 73 1017.8
20260508141602 63 109 1.0 7.0 0.00 0.00 0.00 72 1017.9
20260508140601 63 107 0.0 3.0 0.00 0.00 0.00 75 1018.0
20260508135602 62 105 0.0 2.0 0.00 0.00 0.00 77 1017.9
20260508133602 60 111 0.0 2.0 0.00 0.00 0.00 82 1018.1
20260508132602 58 111 0.0 1.0 0.00 0.00 0.00 82 1018.0
20260508131601 55 115 0.0 1.0 0.00 0.00 0.00 91 1017.7
20260508130602 54 110 0.0 0.0 0.00 0.00 0.00 92 1017.6
20260508125601 54 335 0.0 0.0 0.00 0.00 0.00 92 1017.5
20260508124602 53 334 0.0 0.0 0.00 0.00 0.00 92 1017.4
20260508123601 52 334 0.0 0.0 0.00 0.00 0.00 92 1017.2
20260508122602 52 334 0.0 0.0 0.00 0.00 0.00 92 1017.1
20260508121601 52 334 0.0 0.0 0.00 0.00 0.00 92 1017.1
20260508120602 52 334 0.0 0.0 0.00 0.00 0.00 92 1017.1
20260508115602 52 334 0.0 0.0 0.00 0.00 0.00 91 1016.8
20260508114602 52 334 0.0 0.0 0.00 0.00 0.00 91 1016.8
20260508113601 52 334 0.0 0.0 0.00 0.00 0.00 91 1016.5
20260508112602 52 334 0.0 0.0 0.00 0.00 0.00 91 1016.1
20260508110601 52 334 0.0 0.0 0.00 0.00 0.00 90 1015.5
20260508105601 52 334 0.0 0.0 0.00 0.00 0.00 90 1015.4
20260508104601 52 334 0.0 0.0 0.00 0.00 0.00 90 1015.5
20260508103601 52 334 0.0 0.0 0.00 0.00 0.00 90 1015.2
20260508100601 52 334 0.0 0.0 0.00 0.00 0.00 89 1014.8
20260508095602 52 334 0.0 0.0 0.00 0.00 0.00 89 1014.7
20260508094602 53 334 0.0 0.0 0.00 0.00 0.00 89 1014.6
20260508093601 53 334 0.0 0.0 0.00 0.00 0.00 89 1014.6
20260508092602 53 334 0.0 0.0 0.00 0.00 0.00 89 1014.7
20260508090601 54 334 0.0 0.0 0.00 0.00 0.00 88 1014.3
20260508085602 54 334 0.0 0.0 0.00 0.00 0.00 87 1014.3
20260508084602 54 334 0.0 0.0 0.00 0.00 0.00 87 1014.1
20260508081601 55 334 0.0 0.0 0.00 0.00 0.00 87 1014.1
20260508080602 55 334 0.0 0.0 0.00 0.00 0.00 86 1014.0
20260508075602 55 334 0.0 0.0 0.00 0.00 0.00 86 1014.0
20260508074602 55 334 0.0 0.0 0.00 0.00 0.00 85 1014.0
20260508072601 56 334 0.0 0.0 0.00 0.00 0.00 84 1013.9
20260508071601 56 334 0.0 0.0 0.00 0.00 0.00 84 1014.0
20260508070602 56 334 0.0 0.0 0.00 0.00 0.00 83 1013.8
20260508065601 56 334 0.0 0.0 0.00 0.00 0.00 81 1013.7
20260508064601 57 334 0.0 0.0 0.00 0.00 0.00 81 1013.8
20260508063601 57 334 0.0 0.0 0.00 0.00 0.00 81 1013.6
20260508062601 57 334 0.0 0.0 0.00 0.00 0.00 82 1013.6
20260508061602 58 334 0.0 0.0 0.00 0.00 0.00 81 1013.6
20260508060601 58 334 0.0 0.0 0.00 0.00 0.00 80 1013.5
20260508055602 58 334 0.0 0.0 0.00 0.00 0.00 80 1013.8
20260508054601 58 334 0.0 0.0 0.00 0.00 0.00 81 1013.9
20260508053602 59 334 0.0 0.0 0.00 0.00 0.00 80 1013.9
20260508051601 59 334 0.0 0.0 0.00 0.00 0.00 77 1013.8
20260508045601 60 334 0.0 0.0 0.00 0.00 0.00 75 1013.8
20260508044602 60 334 0.0 0.0 0.00 0.00 0.00 75 1013.4
20260508043602 60 334 0.0 0.0 0.00 0.00 0.00 75 1013.6
20260508040602 62 334 0.0 0.0 0.00 0.00 1.48 73 1013.3
20260508035601 62 334 0.0 0.0 0.00 0.00 1.48 72 1013.1
20260508034602 62 334 0.0 0.0 0.00 0.00 1.48 72 1013.1
20260508033601 63 334 0.0 0.0 0.00 0.00 1.48 73 1013.2
20260508032602 63 334 0.0 0.0 0.00 0.00 1.48 73 1013.2
20260508031601 63 334 0.0 0.0 0.00 0.00 1.48 73 1013.0
20260508030602 64 334 0.0 0.0 0.00 0.00 1.48 76 1013.1
20260508025601 64 334 0.0 0.0 0.00 0.00 1.48 75 1013.0
20260508024601 65 334 0.0 0.0 0.00 0.00 1.48 75 1012.8